TimeEDT,TemperatureF,Dew PointF,Humidity,Sea Level PressureIn,VisibilityMPH,Wind Direction,Wind SpeedMPH,Gust SpeedMPH,PrecipitationIn,Events,Conditions,WindDirDegrees,DateUTC
12:53 AM,73.9,66.9,79,29.88,10.0,NW,5.8,-,N/A,,Scattered Clouds,310,2012-10-19 04:53:00
1:53 AM,71.1,66.9,87,29.88,10.0,SSE,3.5,-,N/A,,Partly Cloudy,150,2012-10-19 05:53:00
2:53 AM,71.1,66.9,87,29.86,10.0,West,3.5,-,N/A,,Partly Cloudy,260,2012-10-19 06:53:00
3:53 AM,71.1,68.0,90,29.85,10.0,West,3.5,-,N/A,,Partly Cloudy,270,2012-10-19 07:53:00
4:53 AM,69.1,66.9,93,29.84,10.0,Calm,Calm,-,N/A,,Partly Cloudy,0,2012-10-19 08:53:00
5:53 AM,66.9,66.0,97,29.84,10.0,SW,3.5,-,N/A,,Partly Cloudy,220,2012-10-19 09:53:00
6:53 AM,66.0,66.0,100,29.85,10.0,SSW,3.5,-,N/A,Fog,Shallow Fog,200,2012-10-19 10:53:00
7:53 AM,66.0,66.0,100,29.87,10.0,Calm,Calm,-,N/A,Fog,Patches of Fog,0,2012-10-19 11:53:00
8:53 AM,71.1,69.1,93,29.88,10.0,West,3.5,-,N/A,,Scattered Clouds,280,2012-10-19 12:53:00
9:53 AM,77.0,71.1,82,29.88,10.0,SW,5.8,-,N/A,,Scattered Clouds,230,2012-10-19 13:53:00
10:53 AM,80.1,68.0,67,29.88,10.0,WSW,4.6,-,N/A,,Scattered Clouds,250,2012-10-19 14:53:00
11:53 AM,84.0,64.9,53,29.89,10.0,WNW,9.2,-,N/A,,Scattered Clouds,300,2012-10-19 15:53:00
12:53 PM,86.0,64.9,49,29.87,10.0,SW,6.9,-,N/A,,Mostly Cloudy,220,2012-10-19 16:53:00
1:53 PM,86.0,64.0,48,29.85,10.0,Variable,3.5,-,N/A,,Mostly Cloudy,0,2012-10-19 17:53:00
2:53 PM,87.1,63.0,44,29.83,10.0,WSW,4.6,-,N/A,,Mostly Cloudy,240,2012-10-19 18:53:00
3:53 PM,87.1,64.0,46,29.81,10.0,Calm,Calm,-,N/A,,Mostly Cloudy,0,2012-10-19 19:53:00
4:53 PM,84.9,64.9,51,29.81,10.0,SW,5.8,-,N/A,,Mostly Cloudy,220,2012-10-19 20:53:00
5:53 PM,84.9,66.0,53,29.81,10.0,West,6.9,-,N/A,,Mostly Cloudy,280,2012-10-19 21:53:00
6:53 PM,82.0,66.9,60,29.82,10.0,West,3.5,-,N/A,,Mostly Cloudy,280,2012-10-19 22:53:00
7:53 PM,81.0,68.0,65,29.83,10.0,Calm,Calm,-,N/A,,Mostly Cloudy,0,2012-10-19 23:53:00
8:53 PM,75.9,70.0,82,29.85,10.0,Calm,Calm,-,N/A,,Mostly Cloudy,0,2012-10-20 00:53:00
9:53 PM,78.1,70.0,76,29.87,10.0,Calm,Calm,-,N/A,,Overcast,0,2012-10-20 01:53:00
10:53 PM,78.1,70.0,76,29.88,10.0,Calm,Calm,-,N/A,,Overcast,0,2012-10-20 02:53:00
11:53 PM,78.1,69.1,74,29.87,10.0,WNW,5.8,-,N/A,,Overcast,290,2012-10-20 03:53:00